Weather History for KGON - October, 2012

Change the Weather History Date:

Friday, October 26, 2012

  Actual Average Record
Temperature  
Mean Temperature 54 °F -  
Max Temperature 64 °F 58 °F 74 °F (1971)
Min Temperature 46 °F 41 °F 29 °F (1969)
Degree Days  
Heating Degree Days 10    
Growing Degree Days 4 (Base 50)    
Moisture  
Dew Point 51 °F    
Average Humidity 79    
Maximum Humidity 97    
Minimum Humidity 60    
Precipitation  
Precipitation 0.00 in - - ()
Sea Level Pressure  
Sea Level Pressure 30.19 in    
Wind  
Wind Speed 3 mph (SE)    
Max Wind Speed 9 mph    
Max Gust Speed -    
Visibility 10 miles    
Events      
Averages and records for this station are not official NWS values.
T = Trace of Precipitation, MM = Missing Value Source: NWS Daily Summary

Daily Weather History Graph

Daily Weather History Graph

Search for Another Location

Airport or City:

Trip Planner

Search our weather history database for the weather conditions in past years. The results will help you decide how hot, cold, wet, or windy it might be!

Date:

Astronomy

Oct. 26, 2012 Rise Set
Actual Time 7:13 AM EDT 5:50 PM EDT
Civil Twilight 6:44 AM EDT 6:18 PM EDT
Nautical Twilight 6:12 AM EDT 6:51 PM EDT
Astronomical Twilight 5:40 AM EDT 7:23 PM EDT
Moon 4:06 PM EDT (10/26) 4:04 AM EDT (10/26)
Length of Visible Light 11h 34m
Length of Day
10h 37m
Waxing Gibbous, 91% of the Moon is Illuminated
Oct 26
Waxing Gibbous
Oct 29
Full
Nov 6
Last Quarter
Nov 13
New
Nov 20
First Quarter

Hourly Weather History & Observations

Time (EDT) Temp. Windchill Dew Point Humidity Pressure Visibility Wind Dir Wind Speed Gust Speed Precip Events Conditions
12:56 AM 46.9 °F - 46.0 °F 97% 30.25 in 10.0 mi Calm Calm - N/A   Clear
1:56 AM 46.0 °F 44.8 °F 45.0 °F 96% 30.25 in 10.0 mi North 3.5 mph - N/A   Clear
2:56 AM 46.9 °F - 46.0 °F 97% 30.24 in 10.0 mi Calm Calm - N/A   Mostly Cloudy
3:56 AM 50.0 °F - 48.0 °F 93% 30.23 in 10.0 mi North 4.6 mph - N/A   Overcast
4:56 AM 51.1 °F - 48.9 °F 92% 30.23 in 10.0 mi Calm Calm - N/A   Overcast
5:56 AM 52.0 °F - 50.0 °F 93% 30.24 in 10.0 mi NNE 3.5 mph - N/A   Overcast
6:56 AM 53.1 °F - 50.0 °F 89% 30.23 in 10.0 mi Calm Calm - N/A   Overcast
7:56 AM 52.0 °F - 50.0 °F 93% 30.24 in 10.0 mi Calm Calm - N/A   Clear
8:56 AM 57.2 °F - 53.6 °F 88% 30.23 in 10.0 mi Calm Calm - N/A   Clear
9:56 AM 60.1 °F - 54.0 °F 80% 30.24 in 10.0 mi Calm Calm - N/A   Overcast
10:56 AM 63.0 °F - 54.0 °F 72% 30.23 in 10.0 mi SE 6.9 mph - N/A   Overcast
11:56 AM 62.6 °F - 53.6 °F 72% 30.23 in 10.0 mi ESE 6.9 mph - N/A   Overcast
12:56 PM 63.0 °F - 51.1 °F 65% 30.22 in 10.0 mi SSE 8.1 mph - N/A   Overcast
1:56 PM 63.0 °F - 52.0 °F 67% 30.19 in 10.0 mi ESE 8.1 mph - N/A   Mostly Cloudy
2:56 PM 63.0 °F - 53.1 °F 70% 30.18 in 10.0 mi SSE 9.2 mph - N/A   Mostly Cloudy
3:56 PM 63.0 °F - 48.9 °F 60% 30.15 in 10.0 mi SSE 5.8 mph - N/A   Mostly Cloudy
4:39 PM 62.6 °F - 50.0 °F 63% 30.14 in 10.0 mi ESE 4.6 mph - N/A   Overcast
4:56 PM 62.1 °F - 50.0 °F 65% 30.14 in 10.0 mi SE 4.6 mph - N/A   Overcast
5:56 PM 60.1 °F - 51.1 °F 72% 30.14 in 10.0 mi ESE 4.6 mph - N/A   Mostly Cloudy
6:56 PM 60.1 °F - 52.0 °F 75% 30.15 in 10.0 mi Calm Calm - N/A   Overcast
7:56 PM 61.0 °F - 52.0 °F 72% 30.15 in 10.0 mi South 6.9 mph - N/A   Overcast
8:56 PM 61.0 °F - 54.0 °F 78% 30.15 in 10.0 mi SSE 5.8 mph - N/A   Overcast
9:56 PM 61.0 °F - 54.0 °F 78% 30.15 in 10.0 mi Calm Calm - N/A   Overcast
10:56 PM 60.1 °F - 54.0 °F 80% 30.14 in 10.0 mi Calm Calm - N/A   Overcast
11:56 PM 60.8 °F - 53.6 °F 77% 30.13 in 10.0 mi Calm Calm - N/A   Overcast